Stündliche Wetter Otradnoe

Heute, 14 April, Mittwoch

Zeit Temperatur Niederschläge Wind Luftdruck Luftfeuchtigkeit
00:00 0°C° 0 mm 3 m/S 762 mmHg 91%
01:00 0°C° 0 mm 3 m/S 762 mmHg 92%
02:00 +1°C° 0 mm 3 m/S 762 mmHg 91%
03:00 +1°C° 0 mm 3 m/S 761 mmHg 90%
04:00 +1°C° 0 mm 3 m/S 761 mmHg 89%
05:00 +2°C° 0 mm 3 m/S 761 mmHg 85%
06:00 +3°C° 0 mm 3 m/S 761 mmHg 81%
07:00 +3°C° 0 mm 3 m/S 761 mmHg 78%
08:00 +4°C° 0 mm 3 m/S 762 mmHg 73%
09:00 +5°C° 0 mm 4 m/S 762 mmHg 69%
10:00 +5°C° 0 mm 5 m/S 762 mmHg 64%
11:00 +5°C° 0 mm 5 m/S 762 mmHg 65%
12:00 +4°C° 0 mm 6 m/S 762 mmHg 65%
13:00 +4°C° 0 mm 7 m/S 762 mmHg 65%
14:00 +4°C° 0 mm 7 m/S 762 mmHg 67%
15:00 +3°C° 0 mm 7 m/S 762 mmHg 68%
16:00 +2°C° 0 mm 8 m/S 762 mmHg 70%
17:00 +2°C° 0 mm 8 m/S 762 mmHg 73%
18:00 +1°C° 0 mm 8 m/S 762 mmHg 75%
19:00 +1°C° 0 mm 9 m/S 762 mmHg 78%
20:00 +1°C° 0 mm 9 m/S 762 mmHg 79%
21:00 +1°C° 0 mm 9 m/S 762 mmHg 79%
22:00 +1°C° 0 mm 9 m/S 762 mmHg 80%
23:00 +1°C° 0 mm 9 m/S 762 mmHg 81%

Morgen, 15 April, Donnerstag

Zeit Temperatur Niederschläge Wind Luftdruck Luftfeuchtigkeit
00:00 +1°C° 0 mm 9 m/S 762 mmHg 82%
01:00 0°C° 0 mm 9 m/S 762 mmHg 83%
02:00 0°C° 0.1 mm 9 m/S 762 mmHg 86%
03:00 0°C° 0.1 mm 9 m/S 762 mmHg 89%
04:00 -1°C° 0.1 mm 9 m/S 762 mmHg 92%
05:00 -1°C° 0.2 mm 9 m/S 762 mmHg 92%
06:00 0°C° 0.2 mm 9 m/S 762 mmHg 92%
07:00 0°C° 0.2 mm 10 m/S 762 mmHg 92%
08:00 0°C° 0 mm 10 m/S 762 mmHg 88%
09:00 +1°C° 0 mm 9 m/S 762 mmHg 85%
10:00 +1°C° 0 mm 9 m/S 762 mmHg 81%
11:00 +3°C° 0 mm 9 m/S 762 mmHg 75%
12:00 +6°C° 0 mm 9 m/S 761 mmHg 68%
13:00 +7°C° 0 mm 9 m/S 761 mmHg 62%
14:00 +7°C° 0 mm 9 m/S 761 mmHg 63%
15:00 +7°C° 0 mm 8 m/S 761 mmHg 65%
16:00 +7°C° 0 mm 8 m/S 761 mmHg 66%
17:00 +6°C° 0 mm 8 m/S 761 mmHg 67%
18:00 +6°C° 0 mm 8 m/S 761 mmHg 68%
19:00 +5°C° 0 mm 8 m/S 762 mmHg 69%
20:00 +4°C° 0 mm 8 m/S 761 mmHg 68%
21:00 +4°C° 0 mm 8 m/S 761 mmHg 66%
22:00 +4°C° 0 mm 8 m/S 761 mmHg 65%
23:00 +2°C° 0 mm 8 m/S 761 mmHg 68%

übermorgen, 16 April, Freitag

Zeit Temperatur Niederschläge Wind Luftdruck Luftfeuchtigkeit
00:00 +2°C° 0 mm 8 m/S 761 mmHg 70%
01:00 +1°C° 0 mm 8 m/S 761 mmHg 73%
02:00 +1°C° 0.2 mm 8 m/S 761 mmHg 77%
03:00 +1°C° 0.2 mm 8 m/S 761 mmHg 80%
04:00 +1°C° 0.2 mm 8 m/S 760 mmHg 84%
05:00 +1°C° 0.1 mm 8 m/S 760 mmHg 84%
06:00 +1°C° 0.1 mm 8 m/S 760 mmHg 83%
07:00 +2°C° 0.1 mm 7 m/S 760 mmHg 83%
08:00 +3°C° 0.1 mm 7 m/S 761 mmHg 84%
09:00 +3°C° 0.1 mm 7 m/S 761 mmHg 85%
10:00 +3°C° 0.1 mm 7 m/S 761 mmHg 86%
11:00 +4°C° 0 mm 6 m/S 761 mmHg 84%
12:00 +5°C° 0 mm 6 m/S 761 mmHg 81%
13:00 +7°C° 0 mm 6 m/S 761 mmHg 79%
14:00 +7°C° 0 mm 6 m/S 761 mmHg 81%
15:00 +6°C° 0 mm 5 m/S 761 mmHg 84%
16:00 +6°C° 0 mm 5 m/S 761 mmHg 86%
17:00 +6°C° 0 mm 5 m/S 761 mmHg 87%
18:00 +6°C° 0 mm 4 m/S 761 mmHg 88%
19:00 +6°C° 0 mm 4 m/S 761 mmHg 90%
20:00 +6°C° 0 mm 4 m/S 762 mmHg 89%
21:00 +6°C° 0 mm 4 m/S 762 mmHg 88%
22:00 +6°C° 0 mm 4 m/S 762 mmHg 88%
23:00 +6°C° 0 mm 4 m/S 762 mmHg 88%

17 April, Samstag

Zeit Temperatur Niederschläge Wind Luftdruck Luftfeuchtigkeit
00:00 +6°C° 0 mm 4 m/S 762 mmHg 89%
01:00 +6°C° 0 mm 5 m/S 762 mmHg 90%
02:00 +6°C° 0 mm 5 m/S 762 mmHg 90%
03:00 +6°C° 0 mm 5 m/S 762 mmHg 90%
04:00 +6°C° 0 mm 5 m/S 762 mmHg 90%
05:00 +6°C° 0.1 mm 5 m/S 762 mmHg 91%
06:00 +6°C° 0.1 mm 5 m/S 762 mmHg 92%
07:00 +6°C° 0.1 mm 4 m/S 762 mmHg 93%
08:00 +7°C° 0 mm 5 m/S 762 mmHg 89%
09:00 +8°C° 0 mm 5 m/S 762 mmHg 85%
10:00 +9°C° 0 mm 5 m/S 762 mmHg 81%
11:00 +11°C° 0 mm 4 m/S 762 mmHg 79%
12:00 +11°C° 0 mm 4 m/S 762 mmHg 77%
13:00 +12°C° 0 mm 4 m/S 762 mmHg 75%
14:00 +12°C° 0 mm 4 m/S 762 mmHg 73%
15:00 +13°C° 0 mm 4 m/S 762 mmHg 71%
16:00 +13°C° 0 mm 4 m/S 762 mmHg 69%
17:00 +12°C° 0.1 mm 4 m/S 762 mmHg 76%
18:00 +9°C° 0.1 mm 5 m/S 762 mmHg 83%
19:00 +8°C° 0.1 mm 5 m/S 762 mmHg 90%
20:00 +7°C° 0 mm 5 m/S 762 mmHg 91%
21:00 +7°C° 0 mm 5 m/S 762 mmHg 92%
22:00 +7°C° 0 mm 5 m/S 762 mmHg 94%
23:00 +6°C° 0 mm 5 m/S 762 mmHg 94%

18 April, Sonntag

Zeit Temperatur Niederschläge Wind Luftdruck Luftfeuchtigkeit
00:00 +6°C° 0 mm 5 m/S 762 mmHg 95%
01:00 +5°C° 0 mm 4 m/S 762 mmHg 96%
02:00 +5°C° 0 mm 4 m/S 762 mmHg 96%
03:00 +5°C° 0 mm 4 m/S 762 mmHg 96%
04:00 +5°C° 0 mm 4 m/S 762 mmHg 95%
05:00 +6°C° 0 mm 4 m/S 762 mmHg 92%
06:00 +7°C° 0 mm 4 m/S 762 mmHg 90%
07:00 +8°C° 0 mm 4 m/S 762 mmHg 87%
08:00 +9°C° 0.2 mm 3 m/S 762 mmHg 85%
09:00 +9°C° 0.2 mm 3 m/S 762 mmHg 84%
10:00 +10°C° 0.2 mm 3 m/S 762 mmHg 82%
11:00 +10°C° 0.1 mm 3 m/S 762 mmHg 79%
12:00 +11°C° 0.1 mm 3 m/S 762 mmHg 76%
13:00 +12°C° 0.1 mm 3 m/S 762 mmHg 73%
14:00 +12°C° 0.1 mm 4 m/S 762 mmHg 73%
15:00 +12°C° 0.1 mm 4 m/S 762 mmHg 74%
16:00 +12°C° 0.1 mm 4 m/S 762 mmHg 74%
17:00 +11°C° 0 mm 4 m/S 762 mmHg 76%
18:00 +10°C° 0 mm 4 m/S 762 mmHg 78%
19:00 +8°C° 0 mm 4 m/S 762 mmHg 81%
20:00 +8°C° 0 mm 4 m/S 762 mmHg 84%
21:00 +7°C° 0 mm 4 m/S 762 mmHg 87%
22:00 +7°C° 0 mm 4 m/S 762 mmHg 90%
23:00 +8°C° 0.1 mm 3 m/S 762 mmHg 92%

19 April, Montag

Zeit Temperatur Niederschläge Wind Luftdruck Luftfeuchtigkeit
00:00 +8°C° 0.1 mm 3 m/S 762 mmHg 94%
01:00 +8°C° 0.1 mm 3 m/S 762 mmHg 96%
02:00 +8°C° 0 mm 3 m/S 762 mmHg 96%
03:00 +7°C° 0 mm 4 m/S 762 mmHg 95%
04:00 +7°C° 0 mm 4 m/S 762 mmHg 95%
05:00 +7°C° 0 mm 5 m/S 762 mmHg 91%
06:00 +8°C° 0 mm 5 m/S 762 mmHg 88%
07:00 +8°C° 0 mm 5 m/S 762 mmHg 84%
08:00 +9°C° 0 mm 5 m/S 762 mmHg 81%
09:00 +10°C° 0 mm 5 m/S 762 mmHg 78%
10:00 +10°C° 0 mm 5 m/S 762 mmHg 74%
11:00 +11°C° 0 mm 6 m/S 762 mmHg 73%
12:00 +11°C° 0 mm 6 m/S 761 mmHg 71%
13:00 +13°C° 0 mm 6 m/S 761 mmHg 69%
14:00 +11°C° 0.1 mm 6 m/S 761 mmHg 73%
15:00 +10°C° 0.1 mm 5 m/S 761 mmHg 78%
16:00 +9°C° 0.1 mm 5 m/S 761 mmHg 82%
17:00 +9°C° 0.1 mm 5 m/S 761 mmHg 82%
18:00 +9°C° 0.1 mm 5 m/S 761 mmHg 81%
19:00 +9°C° 0.1 mm 5 m/S 760 mmHg 80%
20:00 +9°C° 0 mm 5 m/S 760 mmHg 81%
21:00 +9°C° 0 mm 5 m/S 760 mmHg 83%
22:00 +9°C° 0 mm 5 m/S 760 mmHg 84%
23:00 +8°C° 0 mm 5 m/S 760 mmHg 85%
Mehr zeigen

Wir brauchen deine Erlaubnis

Meteoprog und unser Service Anbieter werden persönliche Daten aufbewahren, so wie Cookies, Geräte Bezeichnung oder ähnliche Technologien von deinem Gerät und Prozess, so wie Persönliche Daten Inhalte und Werbungen, genauso wie social Media und den Verkehr zu analysieren.

  • Aufbewahrung und/oder Zugang zu deiner Geräte Informationen.

    Cookies, Geräte Bezeichnung oder andere Informationen, können aufbewahrt oder Zugang zu deinem Gerät erhalten, für den Grund, der oben angegeben wird.

  • Personalisierte Werbung und Inhalte, Messungen, Einblick in das Publikum und Produkt Entwicklung.

    Werbungen und Inhalte können personalisiert werden, basierend auf ein Profil. Mehr Daten können besser personalisierte Werbungen und Inhalte hinzufügen. Werbung und Inhalte können gezeigt und gemessen werden. Einblicke über das Publikum, welche die Werbung gesehen haben und den Inhalt, können abgeleitet werden. So wie Daten können genutzt werden, um es zu verbessern oder die Benutzer Erfahrung zu verbessern das System und die Software.

Wenn du “Ich stimme zu” klickst, erlaubst du uns, die Cookies zu benutzen die Geräte Bezeichnung, den Web oder ähnliche Technologien zu benutzen. Deine Settings, können in deinem Gerät bei deinem Browser geändert werden.

Für den bestimmten Zweck, berechtigten Interessen beruhen darauf, mehr als auf den Inhalt. Du kannst mehr darüber in unseren Privaten und Cookie Politik lesen.